Find Starlink 35018

NORAD ID: 65288 Int'l Des: 2025-184 Owner: SPXS Country: US Constellation: starlink operational
LEOCIRCULARRETROGRADESSO

現在のビュー

3D地球を読み込み中...

About Starlink 35018

Starlink 35018 (NORAD 65288) is a starlink constellation satellite (v2 mini) launched Aug 22, 2025 by SPXS of US. It operates in LEO, CIRCULAR, RETROGRADE, SSO orbit with a mass of 575.00 kg.

Starlink 35018について

説明を読み込み中...

次回通過

Passes for default location (London). Set your location on the main map for personalized predictions.

高度履歴

Loading altitude history...

軌道要素

1 65288U 25184R 26196.82963441 .00004138 00000-0 29041-3 0 9995
2 65288 97.2820 246.8918 0000975 112.9926 247.1405 15.05664240 50582
Epoch: Jul 15, 2026 • Age: 5 hours

現在のステータス

高度 555.0 km
遠地点 / 近地点 N/A
速度 7.59 km/s
衛星直下点 41.70°N, 120.1°E
打ち上げ日 Aug 22, 2025
運用期間 0.8 years
タイプ internet

技術仕様

分類 Payload
質量 575.00 kg
乾燥質量 530.00 kg
総質量 575.00 kg
長さ 0.30 m
直径 4.10 m
スパン 29.00 m
形状 Box + pan
製造者 SPXS
バスタイプ Starlink V2MO
フェーズステータス In Orbit
所有者/国 SPXS/US

Most Searched